"Time","Temp","Dewpoint","Humidity","Pressure","Direction","Speed","Gust","Precip","PrecipRate"
"00:04:56","64.7","64.1","98","29.85","326","1.4","4","0.00","0.01"
"00:09:59","64.7","64.1","98","29.85","334","1.1","4","0.00","0.01"
"00:14:56","64.6","64","98","29.85","355","1.1","4","0.00","0.01"
"00:19:59","64.6","64","98","29.85","3","1.5","9.2","0.00","0.01"
"00:24:59","64.5","63.9","98","29.85","345","0.8","3.5","0.00","0.01"
"00:29:58","64.5","63.9","98","29.85","8","1.7","7","0.00","0.01"
"00:34:58","64.4","63.8","98","29.85","343","1.5","6.9","0.00","0.01"
"00:39:56","64.4","63.8","98","29.85","342","1.4","4","0.00","0.01"
"00:44:56","64.3","63.7","98","29.85","337","1.4","5","0.00","0.01"
"00:49:59","64.3","63.7","98","29.85","9","1.3","4.6","0.00","0.00"
"00:54:59","64.3","63.7","98","29.85","16","0.9","4","0.00","0.00"
"00:59:59","64.2","63.6","98","29.85","7","1.2","3.5","0.00","0.00"
"01:04:59","64.2","63.6","98","29.85","344","1.2","5","0.00","0.00"
"01:09:59","64.2","63.6","98","29.85","336","1.5","5","0.00","0.00"
"01:14:57","64.2","63.6","98","29.85","329","1.2","4","0.00","0.00"
"01:19:57","64.2","63.6","98","29.85","303","0.7","3.5","0.00","0.00"
"01:24:57","64.2","63.6","98","29.85","335","1.4","4","0.00","0.00"
"01:29:58","64.2","63.6","98","29.85","335","1.3","4","0.00","0.00"
"01:34:58","64.2","63.6","98","29.84","341","1.2","4","0.00","0.00"
"01:39:56","64.1","63.5","98","29.84","352","1.6","5","0.00","0.00"
"01:44:59","64.1","63.5","98","29.84","316","1.8","5","0.00","0.00"
"01:49:59","64","63.4","98","29.83","299","0.5","3","0.00","0.00"
"01:54:58","64","63.4","98","29.83","299","0.9","3.5","0.00","0.00"
"01:59:58","64","63.4","98","29.83","301","1","3.5","0.00","0.00"
"02:04:56","63.9","63.3","98","29.82","329","1.1","3.5","0.00","0.00"
"02:09:56","63.9","63.3","98","29.82","9","1.1","9","0.00","0.00"
"02:14:59","63.9","63.3","98","29.83","357","1.2","9.2","0.00","0.00"
"02:19:58","63.9","63.3","98","29.83","1","1.3","5","0.00","0.00"
"02:24:57","63.9","63.3","98","29.83","355","1.2","5","0.00","0.00"
"02:29:57","63.8","63.2","98","29.83","346","0.9","3.5","0.00","0.00"
"02:34:57","63.8","63.2","98","29.82","346","1.1","3.5","0.00","0.00"
"02:39:59","63.8","63.2","98","29.82","346","0.9","3.5","0.00","0.00"
"02:44:56","63.8","63.2","98","29.82","346","0.4","2.3","0.00","0.00"
"02:49:55","63.8","63.2","98","29.82","347","0.6","3","0.00","0.00"
"02:54:59","63.8","63.2","98","29.82","352","0.7","3.5","0.00","0.00"
"02:59:59","63.8","63.2","98","29.82","327","0.8","4","0.00","0.00"
"03:04:57","63.8","63.2","98","29.82","345","1.1","5","0.00","0.00"
"03:09:57","63.8","63.2","98","29.82","341","0.7","5","0.00","0.00"
"03:14:56","63.7","63.1","98","29.82","338","0.9","5","0.00","0.00"
"03:19:56","63.7","63.1","98","29.82","336","0.8","3","0.00","0.00"
"03:24:59","63.7","63.1","98","29.82","333","1.5","5","0.00","0.00"
"03:29:59","63.6","63","98","29.82","327","0.5","3.5","0.00","0.00"
"03:34:58","63.6","63","98","29.81","326","0.7","6","0.00","0.00"
"03:39:59","63.6","63","98","29.81","338","1.2","5.8","0.00","0.00"
"03:44:59","63.4","62.8","98","29.81","337","0.8","4","0.00","0.00"
"03:49:58","63.4","62.8","98","29.81","329","1.2","5","0.00","0.00"
"03:54:58","63.4","62.8","98","29.81","325","1.2","4","0.00","0.00"
"03:59:58","63.3","62.7","98","29.82","317","0.8","4","0.00","0.00"
"04:04:59","63.3","62.7","98","29.82","331","2.1","7","0.00","0.00"
"04:09:59","63.2","62.6","98","29.82","327","2","6.9","0.00","0.00"
"04:14:58","63","62.4","98","29.82","342","2.7","8.1","0.00","0.00"
"04:19:58","62.7","62.1","98","29.82","348","2","6","0.00","0.00"
"04:24:58","62.5","61.9","98","29.82","354","1.8","5","0.00","0.00"
"04:29:58","62.3","61.7","98","29.83","344","1.8","7","0.00","0.00"
"04:34:56","62.2","61.6","98","29.83","343","1.2","4","0.00","0.00"
"04:39:58","62","61.4","98","29.83","339","1.7","5","0.00","0.00"
"04:44:59","62","61.4","98","29.83","328","1.4","4","0.00","0.00"
"04:49:58","61.9","61.3","98","29.83","338","1.8","5","0.00","0.00"
"04:54:58","61.7","61.1","98","29.83","346","1.3","5","0.00","0.00"
"04:59:58","61.7","61.1","98","29.83","344","1.4","5","0.00","0.00"
"05:04:56","61.6","61","98","29.83","343","0.8","3.5","0.00","0.00"
"05:09:57","61.6","61","98","29.83","327","1.7","4","0.00","0.00"
"05:14:56","61.6","61","98","29.83","346","2.1","6","0.00","0.00"
"05:19:56","61.5","60.9","98","29.83","340","2.1","7","0.00","0.00"
"05:24:56","61.5","60.9","98","29.83","326","1.4","4.6","0.00","0.00"
"05:29:57","61.4","60.8","98","29.83","346","2.7","7","0.00","0.00"
"05:34:57","61.4","60.8","98","29.83","348","2.3","5.8","0.00","0.00"
"05:39:59","61.4","60.8","98","29.83","347","2","5","0.00","0.00"
"05:44:56","61.4","60.8","98","29.83","353","1.8","6","0.00","0.00"
"05:49:56","61.3","60.7","98","29.83","345","3.2","7","0.00","0.00"
"05:54:56","61.3","60.7","98","29.83","351","1.4","4","0.00","0.00"
"05:59:56","61.3","60.7","98","29.83","351","1.7","4","0.00","0.00"
"06:04:57","61.2","60.6","98","29.83","344","1.7","5","0.00","0.00"
"06:09:59","61.2","60.6","98","29.83","351","0.7","4.6","0.00","0.00"
"06:14:58","61.2","60.6","98","29.83","345","0.5","3.5","0.01","0.01"
"06:19:58","61.2","60.6","98","29.82","345","0.6","2.3","0.01","0.01"
"06:24:57","61.2","60.6","98","29.82","345","0.6","2.3","0.01","0.01"
"06:29:57","61.2","60.6","98","29.82","345","0.8","3.5","0.01","0.01"
"06:34:56","61.2","60.6","98","29.82","345","0.6","3.5","0.01","0.01"
"06:39:58","61.3","60.7","98","29.82","343","1.3","4","0.01","0.01"
"06:44:59","61.3","60.7","98","29.82","350","1.1","6","0.01","0.01"
"06:49:59","61.4","60.8","98","29.82","346","1.3","4","0.01","0.01"
"06:54:57","61.5","60.9","98","29.82","338","2.3","8","0.01","0.01"
"06:59:56","61.5","60.9","98","29.83","351","2","8.1","0.01","0.01"
"07:04:59","61.5","60.9","98","29.83","348","1.5","5","0.01","0.01"
"07:09:56","61.5","60.9","98","29.83","343","2.1","10.4","0.01","0.01"
"07:14:58","61.5","60.9","98","29.84","343","1.8","9.2","0.01","0.01"
"07:19:57","61.6","61","98","29.84","347","1.8","6","0.01","0.00"
"07:24:57","61.6","61","98","29.84","336","1.9","5","0.01","0.00"
"07:25:30","61.6","61","98","29.84","331","1.8","3.5","0.01","0.00"
"07:44:56","61.7","61.1","98","29.84","338","3.2","11","0.01","0.00"
"07:49:57","61.8","61.2","98","29.84","345","2.3","7","0.01","0.00"
"07:54:56","61.7","61.1","98","29.84","339","3.1","7","0.01","0.00"
"07:59:57","61.6","61","98","29.84","345","2.6","6","0.01","0.00"
"08:04:56","61.5","60.9","98","29.84","343","2.2","10.4","0.01","0.00"
"08:09:57","61.5","60.9","98","29.84","352","2.6","9.2","0.01","0.00"
"08:14:58","61.5","60.9","98","29.85","342","1.4","5","0.01","0.00"
"08:19:58","61.5","60.9","98","29.85","339","0.5","4.6","0.01","0.00"
"08:24:57","61.5","60.9","98","29.85","333","1","5","0.01","0.00"
"08:29:56","61.5","60.9","98","29.85","339","1.4","4","0.01","0.00"
"08:34:56","61.7","61.1","98","29.85","31","1.3","4","0.01","0.00"
"08:39:58","61.8","61.2","98","29.85","353","1.1","4","0.01","0.00"
"08:44:57","61.8","61.2","98","29.85","18","1.3","3.5","0.01","0.00"
"08:49:56","61.9","61.3","98","29.85","38","0.7","2.3","0.01","0.00"
"08:54:56","62","61.4","98","29.85","344","1.8","4","0.01","0.00"
"08:59:59","62.2","61.6","98","29.86","355","0.9","3.5","0.01","0.00"
"09:04:58","62.4","61.8","98","29.86","339","2","4","0.01","0.00"
"09:09:59","62.5","61.9","98","29.86","340","1.2","4","0.01","0.00"
"09:14:58","62.6","62","98","29.86","338","1","4","0.01","0.00"
"09:19:57","62.8","62.2","98","29.86","337","0.9","4","0.01","0.00"
"09:24:57","62.9","62.1","97.3","29.86","337","0.8","3.5","0.01","0.00"
"09:29:56","63.1","62.2","97","29.87","337","0.9","3.5","0.01","0.00"
"09:34:59","63.1","62.2","97","29.87","334","1.1","4","0.01","0.00"
"09:39:57","63.1","62.2","97","29.87","336","1.3","4","0.01","0.00"
"09:44:57","63.2","62.3","97","29.87","335","0.9","6","0.01","0.00"
"09:49:59","63.4","62.5","97","29.87","338","0.7","5.8","0.01","0.00"
"09:54:58","63.6","62.7","97","29.87","338","0.8","3","0.01","0.00"
"09:59:56","63.8","62.9","97","29.87","338","0.6","3.5","0.01","0.00"
"10:04:56","64","63.1","97","29.87","331","1.2","4","0.01","0.00"
"10:09:56","64.2","63","96.1","29.87","331","1.8","5","0.01","0.00"
"10:14:58","64.4","63.2","96","29.87","328","1.5","4","0.01","0.00"
"10:19:57","64.6","63.4","96","29.87","319","0.9","3.5","0.01","0.00"
"10:24:56","64.9","63.5","95.4","29.87","333","2","5","0.01","0.00"
"10:29:59","65.2","63.8","95.3","29.87","351","1.4","5","0.01","0.00"
"10:34:58","65.5","64","94.8","29.87","58","1.1","4","0.01","0.00"
"10:39:56","65.8","64.1","94.3","29.87","51","0.8","3.5","0.01","0.00"
"10:44:58","66.2","64.2","93.4","29.87","56","0.9","2.3","0.01","0.00"
"10:49:57","66.7","64.6","93.2","29.87","19","1.1","7","0.01","0.00"
"10:54:57","67.1","64.7","92.3","29.87","349","1.6","6.9","0.01","0.00"
"10:59:55","67.5","65.1","92.1","29.87","330","0.8","4","0.01","0.00"
"11:04:59","67.9","65","90.6","29.87","359","1.3","4","0.01","0.00"
"11:09:59","68.3","65.3","90.1","29.87","330","1.2","4","0.01","0.00"
"11:14:56","68.6","65.2","88.8","29.87","336","3.9","10","0.01","0.00"
"11:19:59","68.6","64.8","87.5","29.87","339","3.9","10.4","0.01","0.00"
"11:24:58","68.6","64.8","87.7","29.87","330","2.2","9","0.01","0.00"
"11:29:57","68.4","64.6","87.5","29.88","343","2.8","9.2","0.01","0.00"
"11:34:56","68.2","64.5","88.1","29.88","336","1.8","5.8","0.01","0.00"
"11:39:58","68.2","64.6","88.4","29.88","346","0.4","3.5","0.01","0.00"
"11:44:58","68.1","64.5","88.2","29.88","48","1","3","0.01","0.00"
"11:49:57","68.1","64.7","88.8","29.88","334","1.4","5","0.01","0.00"
"11:54:57","68.2","64.6","88.3","29.88","334","2.3","4.6","0.01","0.00"
"11:59:57","68.2","64.5","88","29.88","337","2.3","6","0.01","0.00"
"12:04:56","68.2","64.5","88.2","29.88","335","2.6","5.8","0.01","0.00"
"12:09:57","68.2","64.8","89","29.88","336","1.5","6","0.01","0.00"
"12:14:59","68.4","64.8","88.3","29.89","357","0.6","2.3","0.01","0.00"
"12:19:59","68.5","64.9","88.5","29.89","0","0.6","3","0.01","0.00"
"12:24:58","68.7","65.2","88.6","29.89","4","0.7","2.3","0.01","0.00"
"12:29:58","68.9","65.1","87.8","29.89","338","0.8","3.5","0.01","0.00"
"12:34:57","69","65.1","87.5","29.89","1","0.7","3.5","0.01","0.00"
"12:39:55","69","65","87","29.89","32","0.7","4","0.01","0.00"
"12:44:59","69","65.1","87.2","29.89","332","1.2","4","0.01","0.00"
"12:49:59","69.1","65.2","87.3","29.89","337","0.4","3","0.01","0.00"
"12:54:58","69.5","65.8","88.2","29.89","345","0.3","2.3","0.01","0.00"
"12:59:57","69.9","65.9","87.2","29.89","22","0.7","3","0.01","0.00"
"13:04:57","70.1","65.7","85.8","29.88","46","0.7","3","0.01","0.00"
"13:09:57","70.3","66.1","86.7","29.88","52","1.1","3.5","0.01","0.00"
"13:14:59","70.3","66.2","87.1","29.89","29","1.3","3.5","0.01","0.00"
"13:19:59","70.3","66.2","87","29.89","279","1","2.3","0.01","0.00"
"13:24:58","70.2","66.1","86.8","29.89","286","1","4","0.01","0.00"
"13:29:58","70.2","65.8","86","29.89","352","1.5","5","0.01","0.00"
"13:34:59","70.3","66","86.4","29.88","340","1.2","3.5","0.01","0.00"
"13:39:59","70.5","65.9","85.4","29.88","339","1.1","4","0.01","0.00"
"13:44:59","70.8","65.9","84.7","29.88","341","1.5","4","0.01","0.00"
"13:49:59","71.1","66.1","84.3","29.88","351","0.8","2.3","0.01","0.00"
"13:54:58","71.2","66","83.8","29.88","40","0.8","3.5","0.01","0.00"
"13:59:58","71.2","66.1","84","29.88","37","0.7","2.3","0.01","0.00"
"14:04:57","71.4","66.2","83.7","29.88","347","1","5","0.01","0.00"
"14:09:58","71.6","66.5","83.8","29.88","347","0.8","4.6","0.01","0.00"
"14:14:56","71.9","66.5","83.2","29.88","339","1.2","4","0.01","0.00"
"14:19:59","72.2","66.3","81.9","29.88","332","2.2","5","0.01","0.00"
"14:24:59","72.3","66.6","82.3","29.88","331","0.6","3.5","0.01","0.00"
"14:29:57","72.3","66.5","82","29.88","50","1.2","3.5","0.01","0.00"
"14:34:57","72.3","66.5","82.2","29.88","80","1.1","3.5","0.01","0.00"
"14:39:59","72.2","66.4","82.3","29.88","66","0.5","3","0.01","0.00"
"14:44:58","72.2","66.5","82.3","29.88","340","1.3","3.5","0.01","0.00"
"14:49:57","72.3","66.6","82.3","29.87","318","0.8","3.5","0.01","0.00"
"14:54:56","72.4","66.5","81.8","29.87","327","1.8","5","0.01","0.00"
"14:59:59","72.4","66.7","82.4","29.87","347","1.9","8.1","0.01","0.00"
"15:04:59","72.4","66.7","82.5","29.87","338","1.7","5","0.01","0.00"
"15:09:56","72.4","66.8","82.6","29.87","351","0.8","3","0.01","0.00"
"15:14:58","72.5","66.8","82.3","29.87","63","0.6","3.5","0.01","0.00"
"15:19:57","72.5","66.6","81.8","29.87","46","0.9","3.5","0.01","0.00"
"15:24:56","72.5","66.8","82.1","29.87","344","0.8","3","0.01","0.00"
"15:29:56","72.7","66.6","81.2","29.87","337","1","3.5","0.01","0.00"
"15:34:59","72.8","66.7","81.2","29.87","339","0.8","3.5","0.01","0.00"
"15:39:58","72.9","67.2","82.1","29.87","345","0.6","2.3","0.01","0.00"
"15:44:57","73.2","67.4","82.1","29.87","346","0.4","2.3","0.01","0.00"
"15:49:56","73.3","66.9","80.4","29.87","77","0.9","4","0.01","0.00"
"15:54:56","73.2","67","81","29.87","110","0.6","2.3","0.01","0.00"
"15:59:55","73.3","67","80.6","29.87","104","1.1","3.5","0.01","0.00"
"16:04:59","73.2","66.9","80.9","29.86","96","0.7","3.5","0.01","0.00"
"16:09:59","73.2","66.8","80.4","29.86","107","2","4","0.01","0.00"
"16:14:57","73.2","67.2","81.4","29.86","63","1.3","6","0.01","0.00"
"16:19:57","73.5","67","80.2","29.86","351","1.9","5.8","0.01","0.00"
"16:24:56","73.8","67.3","80","29.86","336","1.3","3.5","0.01","0.00"
"16:29:56","74.1","67.7","80.4","29.86","340","0.5","4","0.01","0.00"
"16:34:56","74.2","67.1","78.6","29.85","353","0.9","3.5","0.01","0.00"
"16:39:57","74.1","67.1","78.8","29.85","355","0.8","3.5","0.01","0.00"
"16:44:56","74.1","67.3","79.3","29.86","336","2.1","5","0.01","0.00"
"16:49:56","73.8","67","79.2","29.86","344","2","6","0.01","0.00"
"16:54:56","73.7","67.1","80","29.86","350","0.3","2.3","0.01","0.00"
"16:59:59","73.7","67.5","81","29.86","350","1","4","0.01","0.00"
"17:04:59","73.7","67.6","81.1","29.86","350","1.3","4","0.01","0.00"
"17:09:59","73.8","67.3","80.5","29.86","350","0.4","3.5","0.01","0.00"
"17:14:57","73.8","67","79.4","29.86","350","0.4","2","0.01","0.00"
"17:19:59","73.8","67.2","79.9","29.84","350","0.9","3.5","0.01","0.00"
"17:24:58","73.9","67.2","79.4","29.84","350","0.8","3.5","0.01","0.00"
"17:29:58","74.1","67.4","79.7","29.84","29","0.5","3.5","0.01","0.00"
"17:34:58","74.1","67.1","78.7","29.83","34","0.1","1.2","0.01","0.00"
"17:39:56","74.2","67.7","80.2","29.83","34","0.6","2.3","0.01","0.00"
"17:44:56","74.4","68.2","81","29.84","328","0.5","2.3","0.01","0.00"
"17:49:59","74.4","67.6","79.3","29.84","257","0.7","2.3","0.01","0.00"
"17:54:59","74.4","67.6","79.2","29.84","257","0.1","1.2","0.01","0.00"
"17:59:59","74.7","67.6","78.7","29.84","257","0.3","2.3","0.01","0.00"
"18:04:59","74.7","67.4","78","29.83","257","0.9","3","0.01","0.00"
"18:09:56","74.6","67.7","78.8","29.83","329","1.7","4","0.01","0.00"
"18:14:58","74.5","67.6","79.1","29.84","333","1","3.5","0.01","0.00"
"18:19:57","74.4","67.3","78.6","29.84","329","1.1","4","0.01","0.00"
"18:24:56","74.4","67.2","78.3","29.84","332","1.2","3.5","0.01","0.00"
"18:29:56","74.2","67.2","78.8","29.85","322","1","3.5","0.01","0.00"
"18:34:56","74.1","67.3","79.3","29.85","303","0.7","4","0.01","0.00"
"18:39:58","74","67.8","81","29.85","303","0.2","2","0.01","0.00"
"18:44:58","73.9","67.3","80","29.85","303","0.4","3.5","0.01","0.00"
"18:49:58","73.8","67","79.5","29.85","300","0.6","3","0.01","0.00"
"18:54:57","73.7","67.3","80.6","29.85","298","0.9","3.5","0.01","0.00"
"18:59:57","73.5","67.4","81.2","29.86","299","0.8","3.5","0.01","0.00"
"19:04:58","73.4","67.3","81.2","29.86","300","1","3.5","0.01","0.00"
"19:09:58","73.2","67.2","81.6","29.86","300","0.3","2.3","0.01","0.00"
"19:14:57","73.1","67.2","81.7","29.86","300","0.4","2.3","0.01","0.00"
"19:19:57","73.1","67.1","81.6","29.86","300","0.8","3.5","0.01","0.00"
"19:24:57","73","67.5","82.8","29.86","300","0.7","2.3","0.01","0.00"
"19:29:57","72.9","67.3","82.6","29.87","319","1.4","3.5","0.01","0.00"
"19:34:56","72.8","67.2","82.8","29.87","339","1.5","4","0.01","0.00"
"19:39:58","72.7","67.1","82.7","29.87","300","1","4","0.01","0.00"
"19:44:57","72.5","67","83","29.87","261","0.6","2.3","0.01","0.00"
"19:49:57","72.4","67.2","83.8","29.87","261","0.4","2.3","0.01","0.00"
"19:54:56","72.3","67.4","84.7","29.87","261","0.3","2.3","0.01","0.00"
"19:59:56","72.1","67.3","85","29.88","261","0.1","1.2","0.01","0.00"
"20:04:56","72","67.1","84.8","29.88","261","0","1","0.01","0.00"
"20:09:57","71.9","67.3","85.5","29.88","261","0.1","1.2","0.01","0.00"
"20:14:55","71.8","67.3","85.8","29.88","261","0","1.2","0.01","0.00"
"20:19:59","71.7","67.2","85.9","29.87","261","0","0","0.01","0.00"
"20:24:59","71.6","67.2","86.1","29.87","261","0","0","0.01","0.00"
"20:29:59","71.5","67.2","86.2","29.87","261","0","0","0.01","0.00"
"20:34:56","71.5","67.4","87","29.87","261","0","0","0.01","0.00"
"20:39:59","71.3","67.2","87","29.87","261","0.2","1.2","0.01","0.00"
"20:44:55","71.2","67.3","87.6","29.87","261","0.1","1.2","0.01","0.00"
"20:49:59","71.1","67.4","88","29.87","261","0","0","0.01","0.00"
"20:54:56","70.9","67.2","88","29.87","261","0.1","1.2","0.01","0.00"
"20:59:56","70.7","67.1","88.2","29.87","261","0","1.2","0.01","0.00"
"21:04:56","70.6","67.2","89","29.87","261","0","0","0.01","0.00"
"21:09:57","70.3","66.8","88.5","29.87","261","0.7","2.3","0.01","0.00"
"21:14:56","70","66.7","89.3","29.87","261","1.1","2.3","0.01","0.00"
"21:19:56","69.7","66.6","90","29.87","261","0","1.2","0.01","0.00"
"21:24:56","69.5","66.2","89.6","29.87","261","0.2","1.2","0.01","0.00"
"21:29:56","69.2","66.1","90","29.87","261","0.1","1.2","0.01","0.00"
"21:34:56","68.7","65.8","90.5","29.87","261","0.1","1.2","0.01","0.00"
"21:39:59","68.4","65.7","91","29.87","261","0","0","0.01","0.00"
"21:44:59","68.1","65.5","91.5","29.87","261","0","0","0.01","0.00"
"21:49:56","67.9","65.5","92","29.87","261","0","1","0.01","0.00"
"21:54:56","67.7","65.5","92.7","29.87","261","0.1","1.2","0.01","0.00"
"21:59:56","67.6","65.5","93","29.88","261","0.2","2","0.01","0.00"
"22:04:56","67.4","65.3","93","29.88","261","0.3","2.3","0.01","0.00"
"22:09:57","67.2","65.2","93.3","29.88","261","0.7","2.3","0.01","0.00"
"22:14:56","67","65.2","94","29.88","261","0.4","1.2","0.01","0.00"
"22:19:59","66.8","65","94","29.88","261","0.1","1.2","0.01","0.00"
"22:24:59","66.5","64.6","93.7","29.88","261","0","0","0.01","0.00"
"22:29:58","66.3","64.6","94.3","29.90","261","0.1","2","0.01","0.00"
"22:34:58","66.2","64.7","95","29.90","261","0.2","2.3","0.01","0.00"
"22:39:56","66.2","64.7","95","29.90","261","0","0","0.01","0.00"
"22:44:56","66","64.5","95","29.90","261","0","0","0.01","0.00"
"22:49:56","65.8","64.3","95","29.90","261","0","0","0.01","0.00"
"22:54:55","65.7","64.2","95","29.90","261","0","1.2","0.01","0.00"
"22:59:56","65.5","64.1","95.1","29.90","261","0","0","0.01","0.00"
"23:04:56","65.5","64.1","95.5","29.90","261","0","0","0.01","0.00"
"23:09:58","65.5","64.3","96","29.90","261","0","0","0.01","0.00"
"23:14:57","65.5","64.3","96","29.90","261","0","0","0.01","0.00"
"23:19:56","65.4","64.2","96","29.90","261","0","0","0.01","0.00"
"23:24:56","65.5","64.3","96","29.90","261","0","0","0.01","0.00"
"23:29:56","65.5","64.3","96","29.90","261","0.1","1.2","0.01","0.00"
"23:34:59","65.6","64.4","96","29.90","261","0.1","1.2","0.01","0.00"
"23:39:58","65.6","64.4","96","29.90","261","0","0","0.01","0.00"
"23:44:58","65.6","64.4","96","29.90","261","0","0","0.01","0.00"
"23:49:58","65.6","64.4","96","29.90","261","0","0","0.01","0.00"
"23:54:58","65.6","64.4","96","29.90","261","0","0","0.01","0.00"
"23:59:58","65.5","64.3","96","29.90","261","0","0","0.01","0.00"
